Year,Month,Day,Hour,Minute,Value (Times are PST for temperature in C)
2010,08,24,00,00,12.80
2010,08,24,00,01,12.80
2010,08,24,00,02,12.80
2010,08,24,00,03,12.80
2010,08,24,00,04,12.80
2010,08,24,00,05,12.80
2010,08,24,00,06,12.80
2010,08,24,00,07,12.80
2010,08,24,00,08,12.80
2010,08,24,00,09,12.80
2010,08,24,00,10,12.80
2010,08,24,00,11,12.80
2010,08,24,00,12,12.70
2010,08,24,00,13,12.70
2010,08,24,00,14,12.70
2010,08,24,00,15,12.70
2010,08,24,00,16,12.60
2010,08,24,00,17,12.60
2010,08,24,00,18,12.60
2010,08,24,00,19,12.50
2010,08,24,00,20,12.50
2010,08,24,00,21,12.40
2010,08,24,00,22,12.40
2010,08,24,00,23,12.30
2010,08,24,00,24,12.30
2010,08,24,00,25,12.30
2010,08,24,00,26,12.30
2010,08,24,00,27,12.20
2010,08,24,00,28,12.20
2010,08,24,00,29,12.20
2010,08,24,00,30,12.20
2010,08,24,00,31,12.20
2010,08,24,00,32,12.10
2010,08,24,00,33,12.10
2010,08,24,00,34,12.10
2010,08,24,00,35,12.10
2010,08,24,00,36,12.10
2010,08,24,00,37,12.10
2010,08,24,00,38,12.10
2010,08,24,00,39,12.10
2010,08,24,00,40,12.10
2010,08,24,00,41,12.00
2010,08,24,00,42,12.00
2010,08,24,00,43,12.00
2010,08,24,00,44,12.00
2010,08,24,00,45,12.00
2010,08,24,00,46,11.90
2010,08,24,00,47,11.90
2010,08,24,00,48,11.90
2010,08,24,00,49,11.90
2010,08,24,00,50,11.90
2010,08,24,00,51,11.80
2010,08,24,00,52,11.80
2010,08,24,00,53,11.80
2010,08,24,00,54,11.80
2010,08,24,00,55,11.80
2010,08,24,00,56,11.80
2010,08,24,00,57,11.80
2010,08,24,00,58,11.80
2010,08,24,00,59,11.80
2010,08,24,01,00,11.70
2010,08,24,01,01,11.70
2010,08,24,01,02,11.70
2010,08,24,01,03,11.70
2010,08,24,01,04,11.60
2010,08,24,01,05,11.60
2010,08,24,01,06,11.60
2010,08,24,01,07,11.60
2010,08,24,01,08,11.60
2010,08,24,01,09,11.60
2010,08,24,01,10,11.60
2010,08,24,01,11,11.60
2010,08,24,01,12,11.60
2010,08,24,01,13,11.60
2010,08,24,01,14,11.60
2010,08,24,01,15,11.60
2010,08,24,01,16,11.60
2010,08,24,01,17,11.60
2010,08,24,01,18,11.60
2010,08,24,01,19,11.60
2010,08,24,01,20,11.60
2010,08,24,01,21,11.60
2010,08,24,01,22,11.60
2010,08,24,01,23,11.60
2010,08,24,01,24,11.60
2010,08,24,01,25,11.60
2010,08,24,01,26,11.60
2010,08,24,01,27,11.70
2010,08,24,01,28,11.70
2010,08,24,01,29,11.70
2010,08,24,01,30,11.70
2010,08,24,01,31,11.70
2010,08,24,01,32,11.70
2010,08,24,01,33,11.70
2010,08,24,01,34,11.70
2010,08,24,01,35,11.70
2010,08,24,01,36,11.70
2010,08,24,01,37,11.70
2010,08,24,01,38,11.70
2010,08,24,01,39,11.60
2010,08,24,01,40,11.60
2010,08,24,01,41,11.60
2010,08,24,01,42,11.60
2010,08,24,01,43,11.60
2010,08,24,01,44,11.60
2010,08,24,01,45,11.60
2010,08,24,01,46,11.60
2010,08,24,01,47,11.60
2010,08,24,01,48,11.60
2010,08,24,01,49,11.60
2010,08,24,01,50,11.60
2010,08,24,01,51,11.60
2010,08,24,01,52,11.60
2010,08,24,01,53,11.60
2010,08,24,01,54,11.60
2010,08,24,01,55,11.60
2010,08,24,01,56,11.60
2010,08,24,01,57,11.60
2010,08,24,01,58,11.60
2010,08,24,01,59,11.60
2010,08,24,02,00,11.70
2010,08,24,02,01,11.70
2010,08,24,02,02,11.70
2010,08,24,02,03,11.70
2010,08,24,02,04,11.80
2010,08,24,02,05,11.80
2010,08,24,02,06,11.80
2010,08,24,02,07,11.80
2010,08,24,02,08,11.80
2010,08,24,02,09,11.80
2010,08,24,02,10,11.80
2010,08,24,02,11,11.80
2010,08,24,02,12,11.80
2010,08,24,02,13,11.80
2010,08,24,02,14,11.80
2010,08,24,02,15,11.80
2010,08,24,02,16,11.80
2010,08,24,02,17,11.80
2010,08,24,02,18,11.80
2010,08,24,02,19,11.70
2010,08,24,02,20,11.70
2010,08,24,02,21,11.70
2010,08,24,02,22,11.70
2010,08,24,02,23,11.60
2010,08,24,02,24,11.60
2010,08,24,02,25,11.60
2010,08,24,02,26,11.60
2010,08,24,02,27,11.60
2010,08,24,02,28,11.60
2010,08,24,02,29,11.60
2010,08,24,02,30,11.70
2010,08,24,02,31,11.70
2010,08,24,02,32,11.70
2010,08,24,02,33,11.70
2010,08,24,02,34,11.70
2010,08,24,02,35,11.70
2010,08,24,02,36,11.70
2010,08,24,02,37,11.70
2010,08,24,02,38,11.70
2010,08,24,02,39,11.70
2010,08,24,02,40,11.70
2010,08,24,02,41,11.70
2010,08,24,02,42,11.60
2010,08,24,02,43,11.60
2010,08,24,02,44,11.60
2010,08,24,02,45,11.60
2010,08,24,02,46,11.60
2010,08,24,02,47,11.60
2010,08,24,02,48,11.50
2010,08,24,02,49,11.40
2010,08,24,02,50,11.40
2010,08,24,02,51,11.40
2010,08,24,02,52,11.40
2010,08,24,02,53,11.30
2010,08,24,02,54,11.30
2010,08,24,02,55,11.30
2010,08,24,02,56,11.20
2010,08,24,02,57,11.20
2010,08,24,02,58,11.10
2010,08,24,02,59,11.10
2010,08,24,03,00,11.10
2010,08,24,03,01,11.10
2010,08,24,03,02,11.10
2010,08,24,03,03,11.10
2010,08,24,03,04,11.10
2010,08,24,03,05,11.00
2010,08,24,03,06,10.90
2010,08,24,03,07,10.90
2010,08,24,03,08,10.90
2010,08,24,03,09,10.90
2010,08,24,03,10,10.90
2010,08,24,03,11,10.90
2010,08,24,03,12,10.90
2010,08,24,03,13,10.90
2010,08,24,03,14,10.80
2010,08,24,03,15,10.80
2010,08,24,03,16,10.80
2010,08,24,03,17,10.80
2010,08,24,03,18,10.80
2010,08,24,03,19,10.80
2010,08,24,03,20,10.80
2010,08,24,03,21,10.80
2010,08,24,03,22,10.80
2010,08,24,03,23,10.80
2010,08,24,03,24,10.70
2010,08,24,03,25,10.70
2010,08,24,03,26,10.70
2010,08,24,03,27,10.70
2010,08,24,03,28,10.70
2010,08,24,03,29,10.70
2010,08,24,03,30,10.70
2010,08,24,03,31,10.70
2010,08,24,03,32,10.70
2010,08,24,03,33,10.70
2010,08,24,03,34,10.70
2010,08,24,03,35,10.70
2010,08,24,03,36,10.70
2010,08,24,03,37,10.70
2010,08,24,03,38,10.70
2010,08,24,03,39,10.70
2010,08,24,03,40,10.70
2010,08,24,03,41,10.70
2010,08,24,03,42,10.60
2010,08,24,03,43,10.60
2010,08,24,03,44,10.60
2010,08,24,03,45,10.60
2010,08,24,03,46,10.60
2010,08,24,03,47,10.60
2010,08,24,03,48,10.60
2010,08,24,03,49,10.60
2010,08,24,03,50,10.60
2010,08,24,03,51,10.60
2010,08,24,03,52,10.60
2010,08,24,03,53,10.60
2010,08,24,03,54,10.60
2010,08,24,03,55,10.60
2010,08,24,03,56,10.60
2010,08,24,03,57,10.60
2010,08,24,03,58,10.50
2010,08,24,03,59,10.40
2010,08,24,04,00,10.40
2010,08,24,04,01,10.40
2010,08,24,04,02,10.40
2010,08,24,04,03,10.40
2010,08,24,04,04,10.40
2010,08,24,04,05,10.40
2010,08,24,04,06,10.40
2010,08,24,04,07,10.40
2010,08,24,04,08,10.40
2010,08,24,04,09,10.40
2010,08,24,04,10,10.40
2010,08,24,04,11,10.40
2010,08,24,04,12,10.40
2010,08,24,04,13,10.40
2010,08,24,04,14,10.40
2010,08,24,04,15,10.40
2010,08,24,04,16,10.40
2010,08,24,04,17,10.40
2010,08,24,04,18,10.40
2010,08,24,04,19,10.30
2010,08,24,04,20,10.30
2010,08,24,04,21,10.30
2010,08,24,04,22,10.30
2010,08,24,04,23,10.30
2010,08,24,04,24,10.30
2010,08,24,04,25,10.40
2010,08,24,04,26,10.40
2010,08,24,04,27,10.40
2010,08,24,04,28,10.40
2010,08,24,04,29,10.40
2010,08,24,04,30,10.40
2010,08,24,04,31,10.40
2010,08,24,04,32,10.50
2010,08,24,04,33,10.60
2010,08,24,04,34,10.60
2010,08,24,04,35,10.60
2010,08,24,04,36,10.60
2010,08,24,04,37,10.60
2010,08,24,04,38,10.60
2010,08,24,04,39,10.60
2010,08,24,04,40,10.60
2010,08,24,04,41,10.60
2010,08,24,04,42,10.60
2010,08,24,04,43,10.60
2010,08,24,04,44,10.60
2010,08,24,04,45,10.60
2010,08,24,04,46,10.60
2010,08,24,04,47,10.60
2010,08,24,04,48,10.60
2010,08,24,04,49,10.70
2010,08,24,04,50,10.70
2010,08,24,04,51,10.70
2010,08,24,04,52,10.70
2010,08,24,04,53,10.70
2010,08,24,04,54,10.80
2010,08,24,04,55,10.80
2010,08,24,04,56,10.80
2010,08,24,04,57,10.80
2010,08,24,04,58,10.80
2010,08,24,04,59,10.80
2010,08,24,05,00,10.80
2010,08,24,05,01,10.80
2010,08,24,05,02,10.80
2010,08,24,05,03,10.70
2010,08,24,05,04,10.70
2010,08,24,05,05,10.70
2010,08,24,05,06,10.70
2010,08,24,05,07,10.70
2010,08,24,05,08,10.70
2010,08,24,05,09,10.70
2010,08,24,05,10,10.70
2010,08,24,05,11,10.70
2010,08,24,05,12,10.70
2010,08,24,05,13,10.70
2010,08,24,05,14,10.60
2010,08,24,05,15,10.70
2010,08,24,05,16,10.70
2010,08,24,05,17,10.60
2010,08,24,05,18,10.60
2010,08,24,05,19,10.60
2010,08,24,05,20,10.70
2010,08,24,05,21,10.70
2010,08,24,05,22,10.70
2010,08,24,05,23,10.70
2010,08,24,05,24,10.70
2010,08,24,05,25,10.70
2010,08,24,05,26,10.80
2010,08,24,05,27,10.80
2010,08,24,05,28,10.80
2010,08,24,05,29,10.80
2010,08,24,05,30,10.90
2010,08,24,05,31,10.90
2010,08,24,05,32,10.90
2010,08,24,05,33,10.90
2010,08,24,05,34,10.90
2010,08,24,05,35,10.90
2010,08,24,05,36,10.90
2010,08,24,05,37,10.90
2010,08,24,05,38,10.90
2010,08,24,05,39,10.90
2010,08,24,05,40,10.90
2010,08,24,05,41,10.90
2010,08,24,05,42,10.90
2010,08,24,05,43,10.90
2010,08,24,05,44,10.90
2010,08,24,05,45,10.90
2010,08,24,05,46,10.90
2010,08,24,05,47,10.90
2010,08,24,05,48,10.90
2010,08,24,05,49,10.90
2010,08,24,05,50,10.90
2010,08,24,05,51,10.90
2010,08,24,05,52,10.90
2010,08,24,05,53,10.80
2010,08,24,05,54,10.80
2010,08,24,05,55,10.80
2010,08,24,05,56,10.80
2010,08,24,05,57,10.80
2010,08,24,05,58,10.70
2010,08,24,05,59,10.70
2010,08,24,06,00,10.70
2010,08,24,06,01,10.70
2010,08,24,06,02,10.70
2010,08,24,06,03,10.60
2010,08,24,06,04,10.60
2010,08,24,06,05,10.60
2010,08,24,06,06,10.60
2010,08,24,06,07,10.60
2010,08,24,06,08,10.60
2010,08,24,06,09,10.60
2010,08,24,06,10,10.60
2010,08,24,06,11,10.60
2010,08,24,06,12,10.60
2010,08,24,06,13,10.60
2010,08,24,06,14,10.60
2010,08,24,06,15,10.60
2010,08,24,06,16,10.60
2010,08,24,06,17,10.60
2010,08,24,06,18,10.50
2010,08,24,06,19,10.40
2010,08,24,06,20,10.40
2010,08,24,06,21,10.40
2010,08,24,06,22,10.40
2010,08,24,06,23,10.40
2010,08,24,06,24,10.40
2010,08,24,06,25,10.40
2010,08,24,06,26,10.40
2010,08,24,06,27,10.40
2010,08,24,06,28,10.40
2010,08,24,06,29,10.40
2010,08,24,06,30,10.40
2010,08,24,06,31,10.40
2010,08,24,06,32,10.40
2010,08,24,06,33,10.40
2010,08,24,06,34,10.40
2010,08,24,06,35,10.40
2010,08,24,06,36,10.40
2010,08,24,06,37,10.40
2010,08,24,06,38,10.40
2010,08,24,06,39,10.40
2010,08,24,06,40,10.40
2010,08,24,06,41,10.40
2010,08,24,06,42,10.40
2010,08,24,06,43,10.40
2010,08,24,06,44,10.40
2010,08,24,06,45,10.40
2010,08,24,06,46,10.40
2010,08,24,06,47,10.40
2010,08,24,06,48,10.40
2010,08,24,06,49,10.40
2010,08,24,06,50,10.50
2010,08,24,06,51,10.60
2010,08,24,06,52,10.60
2010,08,24,06,53,10.60
2010,08,24,06,54,10.60
2010,08,24,06,55,10.70
2010,08,24,06,56,10.70
2010,08,24,06,57,10.70
2010,08,24,06,58,10.80
2010,08,24,06,59,10.80
2010,08,24,07,00,10.90
2010,08,24,07,01,10.90
2010,08,24,07,02,10.90
2010,08,24,07,03,11.10
2010,08,24,07,04,11.10
2010,08,24,07,05,11.20
2010,08,24,07,06,11.20
2010,08,24,07,07,11.30
2010,08,24,07,08,11.40
2010,08,24,07,09,11.40
2010,08,24,07,10,11.50
2010,08,24,07,11,11.60
2010,08,24,07,12,11.70
2010,08,24,07,13,11.80
2010,08,24,07,14,11.80
2010,08,24,07,15,11.90
2010,08,24,07,16,12.00
2010,08,24,07,17,12.10
2010,08,24,07,18,12.20
2010,08,24,07,19,12.30
2010,08,24,07,20,12.30
2010,08,24,07,21,12.40
2010,08,24,07,22,12.40
2010,08,24,07,23,12.50
2010,08,24,07,24,12.50
2010,08,24,07,25,12.60
2010,08,24,07,26,12.60
2010,08,24,07,27,12.70
2010,08,24,07,28,12.70
2010,08,24,07,29,12.80
2010,08,24,07,30,12.90
2010,08,24,07,31,13.00
2010,08,24,07,32,13.10
2010,08,24,07,33,13.30
2010,08,24,07,34,13.40
2010,08,24,07,35,13.50
2010,08,24,07,36,13.50
2010,08,24,07,37,13.50
2010,08,24,07,38,13.60
2010,08,24,07,39,13.60
2010,08,24,07,40,13.70
2010,08,24,07,41,13.70
2010,08,24,07,42,13.70
2010,08,24,07,43,13.80
2010,08,24,07,44,13.90
2010,08,24,07,45,13.90
2010,08,24,07,46,14.00
2010,08,24,07,47,14.20
2010,08,24,07,48,14.20
2010,08,24,07,49,14.40
2010,08,24,07,50,14.50
2010,08,24,07,51,14.70
2010,08,24,07,52,14.80
2010,08,24,07,53,14.90
2010,08,24,07,54,15.10
2010,08,24,07,55,15.20
2010,08,24,07,56,15.30
2010,08,24,07,57,15.50
2010,08,24,07,58,15.60
2010,08,24,07,59,15.70
2010,08,24,08,00,15.80
2010,08,24,08,01,15.80
2010,08,24,08,02,15.90
2010,08,24,08,03,16.10
2010,08,24,08,04,16.10
2010,08,24,08,05,16.20
2010,08,24,08,06,16.20
2010,08,24,08,07,16.30
2010,08,24,08,08,16.40
2010,08,24,08,09,16.40
2010,08,24,08,10,16.50
2010,08,24,08,11,16.60
2010,08,24,08,12,16.60
2010,08,24,08,13,16.70
2010,08,24,08,14,16.70
2010,08,24,08,15,16.70
2010,08,24,08,16,16.70
2010,08,24,08,17,16.80
2010,08,24,08,18,16.80
2010,08,24,08,19,16.90
2010,08,24,08,20,16.90
2010,08,24,08,21,17.00
2010,08,24,08,22,17.00
2010,08,24,08,23,17.10
2010,08,24,08,24,17.20
2010,08,24,08,25,17.20
2010,08,24,08,26,17.30
2010,08,24,08,27,17.30
2010,08,24,08,28,17.30
2010,08,24,08,29,17.40
2010,08,24,08,30,17.50
2010,08,24,08,31,17.60
2010,08,24,08,32,17.70
2010,08,24,08,33,17.70
2010,08,24,08,34,17.80
2010,08,24,08,35,17.90
2010,08,24,08,36,17.90
2010,08,24,08,37,18.00
2010,08,24,08,38,18.10
2010,08,24,08,39,18.20
2010,08,24,08,40,18.20
2010,08,24,08,41,18.30
2010,08,24,08,42,18.40
2010,08,24,08,43,18.40
2010,08,24,08,44,18.50
2010,08,24,08,45,18.50
2010,08,24,08,46,18.60
2010,08,24,08,47,18.60
2010,08,24,08,48,18.60
2010,08,24,08,49,18.70
2010,08,24,08,50,18.70
2010,08,24,08,51,18.70
2010,08,24,08,52,18.80
2010,08,24,08,53,18.80
2010,08,24,08,54,18.80
2010,08,24,08,55,18.80
2010,08,24,08,56,18.80
2010,08,24,08,57,18.80
2010,08,24,08,58,18.80
2010,08,24,08,59,18.80
2010,08,24,09,00,18.90
2010,08,24,09,01,18.90
2010,08,24,09,02,18.90
2010,08,24,09,03,19.00
2010,08,24,09,04,19.10
2010,08,24,09,05,19.10
2010,08,24,09,06,19.10
2010,08,24,09,07,19.20
2010,08,24,09,08,19.30
2010,08,24,09,09,19.30
2010,08,24,09,10,19.40
2010,08,24,09,11,19.50
2010,08,24,09,12,19.50
2010,08,24,09,13,19.50
2010,08,24,09,14,19.50
2010,08,24,09,15,19.50
2010,08,24,09,16,19.50
2010,08,24,09,17,19.50
2010,08,24,09,18,19.50
2010,08,24,09,19,19.50
2010,08,24,09,20,19.50
2010,08,24,09,21,19.60
2010,08,24,09,22,19.60
2010,08,24,09,23,19.60
2010,08,24,09,24,19.70
2010,08,24,09,25,19.70
2010,08,24,09,26,19.60
2010,08,24,09,27,19.60
2010,08,24,09,28,19.60
2010,08,24,09,29,19.70
2010,08,24,09,30,19.70
2010,08,24,09,31,19.80
2010,08,24,09,32,19.80
2010,08,24,09,33,19.90
2010,08,24,09,34,19.90
2010,08,24,09,35,19.90
2010,08,24,09,36,19.90
2010,08,24,09,37,19.90
2010,08,24,09,38,19.90
2010,08,24,09,39,19.90
2010,08,24,09,40,19.90
2010,08,24,09,41,19.90
2010,08,24,09,42,19.90
2010,08,24,09,43,19.90
2010,08,24,09,44,19.90
2010,08,24,09,45,19.90
2010,08,24,09,46,19.90
2010,08,24,09,47,19.90
2010,08,24,09,48,20.00
2010,08,24,09,49,20.10
2010,08,24,09,50,20.10
2010,08,24,09,51,20.10
2010,08,24,09,52,20.00
2010,08,24,09,53,19.90
2010,08,24,09,54,19.90
2010,08,24,09,55,19.90
2010,08,24,09,56,19.90
2010,08,24,09,57,19.90
2010,08,24,09,58,19.90
2010,08,24,09,59,19.90
2010,08,24,10,00,19.90
2010,08,24,10,01,20.00
2010,08,24,10,02,20.10
2010,08,24,10,03,20.20
2010,08,24,10,04,20.30
2010,08,24,10,05,20.40
2010,08,24,10,06,20.50
2010,08,24,10,07,20.60
2010,08,24,10,08,20.80
2010,08,24,10,09,20.80
2010,08,24,10,10,20.90
2010,08,24,10,11,20.90
2010,08,24,10,12,20.90
2010,08,24,10,13,20.90
2010,08,24,10,14,20.90
2010,08,24,10,15,20.90
2010,08,24,10,16,20.90
2010,08,24,10,17,20.90
2010,08,24,10,18,20.80
2010,08,24,10,19,20.80
2010,08,24,10,20,20.80
2010,08,24,10,21,20.70
2010,08,24,10,22,20.70
2010,08,24,10,23,20.70
2010,08,24,10,24,20.70
2010,08,24,10,25,20.80
2010,08,24,10,26,20.80
2010,08,24,10,27,20.80
2010,08,24,10,28,20.90
2010,08,24,10,29,20.90
2010,08,24,10,30,21.00
2010,08,24,10,31,21.00
2010,08,24,10,32,21.00
2010,08,24,10,33,21.10
2010,08,24,10,34,21.10
2010,08,24,10,35,21.20
2010,08,24,10,36,21.20
2010,08,24,10,37,21.20
2010,08,24,10,38,21.20
2010,08,24,10,39,21.30
2010,08,24,10,40,21.30
2010,08,24,10,41,21.30
2010,08,24,10,42,21.30
2010,08,24,10,43,21.30
2010,08,24,10,44,21.30
2010,08,24,10,45,21.30
2010,08,24,10,46,21.30
2010,08,24,10,47,21.30
2010,08,24,10,48,21.30
2010,08,24,10,49,21.30
2010,08,24,10,50,21.30
2010,08,24,10,51,21.30
2010,08,24,10,52,21.40
2010,08,24,10,53,21.40
2010,08,24,10,54,21.40
2010,08,24,10,55,21.40
2010,08,24,10,56,21.60
2010,08,24,10,57,21.60
2010,08,24,10,58,21.60
2010,08,24,10,59,21.60
2010,08,24,11,00,21.50
2010,08,24,11,01,21.40
2010,08,24,11,02,21.50
2010,08,24,11,03,21.60
2010,08,24,11,04,21.60
2010,08,24,11,05,21.60
2010,08,24,11,06,21.60
2010,08,24,11,07,21.60
2010,08,24,11,08,21.70
2010,08,24,11,09,21.80
2010,08,24,11,10,21.90
2010,08,24,11,11,21.90
2010,08,24,11,12,22.00
2010,08,24,11,13,22.00
2010,08,24,11,14,22.00
2010,08,24,11,15,22.00
2010,08,24,11,16,22.10
2010,08,24,11,17,22.10
2010,08,24,11,18,22.20
2010,08,24,11,19,22.30
2010,08,24,11,20,22.30
2010,08,24,11,21,22.40
2010,08,24,11,22,22.40
2010,08,24,11,23,22.30
2010,08,24,11,24,22.30
2010,08,24,11,25,22.20
2010,08,24,11,26,22.00
2010,08,24,11,27,22.00
2010,08,24,11,28,21.90
2010,08,24,11,29,22.00
2010,08,24,11,30,22.10
2010,08,24,11,31,22.10
2010,08,24,11,32,22.10
2010,08,24,11,33,22.10
2010,08,24,11,34,22.20
2010,08,24,11,35,22.30
2010,08,24,11,36,22.30
2010,08,24,11,37,22.20
2010,08,24,11,38,22.20
2010,08,24,11,39,22.30
2010,08,24,11,40,22.30
2010,08,24,11,41,22.40
2010,08,24,11,42,22.50
2010,08,24,11,43,22.60
2010,08,24,11,44,22.70
2010,08,24,11,45,22.80
2010,08,24,11,46,22.90
2010,08,24,11,47,22.90
2010,08,24,11,48,22.90
2010,08,24,11,49,22.90
2010,08,24,11,50,22.90
2010,08,24,11,51,22.80
2010,08,24,11,52,22.80
2010,08,24,11,53,22.80
2010,08,24,11,54,22.90
2010,08,24,11,55,22.80
2010,08,24,11,56,22.80
2010,08,24,11,57,22.70
2010,08,24,11,58,22.70
2010,08,24,11,59,22.60
2010,08,24,12,00,22.60
2010,08,24,12,01,22.50
2010,08,24,12,02,22.50
2010,08,24,12,03,22.50
2010,08,24,12,04,22.60
2010,08,24,12,05,22.60
2010,08,24,12,06,22.60
2010,08,24,12,07,22.70
2010,08,24,12,08,22.70
2010,08,24,12,09,22.80
2010,08,24,12,10,22.90
2010,08,24,12,11,23.00
2010,08,24,12,12,23.20
2010,08,24,12,13,23.30
2010,08,24,12,14,23.30
2010,08,24,12,15,23.30
2010,08,24,12,16,23.30
2010,08,24,12,17,23.30
2010,08,24,12,18,23.30
2010,08,24,12,19,23.30
2010,08,24,12,20,23.20
2010,08,24,12,21,23.20
2010,08,24,12,22,23.20
2010,08,24,12,23,23.30
2010,08,24,12,24,23.30
2010,08,24,12,25,23.40
2010,08,24,12,26,23.40
2010,08,24,12,27,23.60
2010,08,24,12,28,23.60
2010,08,24,12,29,23.60
2010,08,24,12,30,23.60
2010,08,24,12,31,23.60
2010,08,24,12,32,23.50
2010,08,24,12,33,23.40
2010,08,24,12,34,23.40
2010,08,24,12,35,23.50
2010,08,24,12,36,23.40
2010,08,24,12,37,23.40
2010,08,24,12,38,23.60
2010,08,24,12,39,23.60
2010,08,24,12,40,23.60
2010,08,24,12,41,23.60
2010,08,24,12,42,23.70
2010,08,24,12,43,23.80
2010,08,24,12,44,23.90
2010,08,24,12,45,23.90
2010,08,24,12,46,23.90
2010,08,24,12,47,23.80
2010,08,24,12,48,23.70
2010,08,24,12,49,23.70
2010,08,24,12,50,23.70
2010,08,24,12,51,23.70
2010,08,24,12,52,23.70
2010,08,24,12,53,23.70
2010,08,24,12,54,23.70
2010,08,24,12,55,23.60
2010,08,24,12,56,23.50
2010,08,24,12,57,23.60
2010,08,24,12,58,23.60
2010,08,24,12,59,23.70
2010,08,24,13,00,23.80
2010,08,24,13,01,23.90
2010,08,24,13,02,24.00
2010,08,24,13,03,24.10
2010,08,24,13,04,24.10
2010,08,24,13,05,24.00
2010,08,24,13,06,23.90
2010,08,24,13,07,23.70
2010,08,24,13,08,23.70
2010,08,24,13,09,23.70
2010,08,24,13,10,23.70
2010,08,24,13,11,23.70
2010,08,24,13,12,23.70
2010,08,24,13,13,23.70
2010,08,24,13,14,23.70
2010,08,24,13,15,23.70
2010,08,24,13,16,23.60
2010,08,24,13,17,23.60
2010,08,24,13,18,23.60
2010,08,24,13,19,23.70
2010,08,24,13,20,23.70
2010,08,24,13,21,23.80
2010,08,24,13,22,23.80
2010,08,24,13,23,23.90
2010,08,24,13,24,24.00
2010,08,24,13,25,24.10
2010,08,24,13,26,24.10
2010,08,24,13,27,24.10
2010,08,24,13,28,24.10
2010,08,24,13,29,24.10
2010,08,24,13,30,24.10
2010,08,24,13,31,24.00
2010,08,24,13,32,24.00
2010,08,24,13,33,24.10
2010,08,24,13,34,24.10
2010,08,24,13,35,24.10
2010,08,24,13,36,24.10
2010,08,24,13,37,24.10
2010,08,24,13,38,24.10
2010,08,24,13,39,24.00
2010,08,24,13,40,23.90
2010,08,24,13,41,23.90
2010,08,24,13,42,23.90
2010,08,24,13,43,23.90
2010,08,24,13,44,23.90
2010,08,24,13,45,24.00
2010,08,24,13,46,24.10
2010,08,24,13,47,24.20
2010,08,24,13,48,24.30
2010,08,24,13,49,24.40
2010,08,24,13,50,24.40
2010,08,24,13,51,24.40
2010,08,24,13,52,24.40
2010,08,24,13,53,24.50
2010,08,24,13,54,24.60
2010,08,24,13,55,24.70
2010,08,24,13,56,24.70
2010,08,24,13,57,24.80
2010,08,24,13,58,24.80
2010,08,24,13,59,24.90
2010,08,24,14,00,25.10
2010,08,24,14,01,25.00
2010,08,24,14,02,25.10
2010,08,24,14,03,25.10
2010,08,24,14,04,25.10
2010,08,24,14,05,25.00
2010,08,24,14,06,24.90
2010,08,24,14,07,24.80
2010,08,24,14,08,24.70
2010,08,24,14,09,24.60
2010,08,24,14,10,24.60
2010,08,24,14,11,24.60
2010,08,24,14,12,24.60
2010,08,24,14,13,24.50
2010,08,24,14,14,24.50
2010,08,24,14,15,24.50
2010,08,24,14,16,24.60
2010,08,24,14,17,24.80
2010,08,24,14,18,24.90
2010,08,24,14,19,25.00
2010,08,24,14,20,25.00
2010,08,24,14,21,25.10
2010,08,24,14,22,25.20
2010,08,24,14,23,25.30
2010,08,24,14,24,25.30
2010,08,24,14,25,25.30
2010,08,24,14,26,25.20
2010,08,24,14,27,25.10
2010,08,24,14,28,25.00
2010,08,24,14,29,25.00
2010,08,24,14,30,25.10
2010,08,24,14,31,25.10
2010,08,24,14,32,25.00
2010,08,24,14,33,25.10
2010,08,24,14,34,25.20
2010,08,24,14,35,25.30
2010,08,24,14,36,25.40
2010,08,24,14,37,25.50
2010,08,24,14,38,25.50
2010,08,24,14,39,25.50
2010,08,24,14,40,25.40
2010,08,24,14,41,25.30
2010,08,24,14,42,25.20
2010,08,24,14,43,25.10
2010,08,24,14,44,25.00
2010,08,24,14,45,25.00
2010,08,24,14,46,25.10
2010,08,24,14,47,25.20
2010,08,24,14,48,25.20
2010,08,24,14,49,25.30
2010,08,24,14,50,25.40
2010,08,24,14,51,25.60
2010,08,24,14,52,25.60
2010,08,24,14,53,25.80
2010,08,24,14,54,25.80
2010,08,24,14,55,25.80
2010,08,24,14,56,25.90
2010,08,24,14,57,26.00
2010,08,24,14,58,26.10
2010,08,24,14,59,26.00
2010,08,24,15,00,25.70
2010,08,24,15,01,25.50
2010,08,24,15,02,25.20
2010,08,24,15,03,24.80
2010,08,24,15,04,24.30
2010,08,24,15,05,23.80
2010,08,24,15,06,23.50
2010,08,24,15,07,23.30
2010,08,24,15,08,23.00
2010,08,24,15,09,22.70
2010,08,24,15,10,22.60
2010,08,24,15,11,22.30
2010,08,24,15,12,22.20
2010,08,24,15,13,22.20
2010,08,24,15,14,22.20
2010,08,24,15,15,22.30
2010,08,24,15,16,22.30
2010,08,24,15,17,22.30
2010,08,24,15,18,22.20
2010,08,24,15,19,22.20
2010,08,24,15,20,22.30
2010,08,24,15,21,22.30
2010,08,24,15,22,22.40
2010,08,24,15,23,22.50
2010,08,24,15,24,22.40
2010,08,24,15,25,22.30
2010,08,24,15,26,22.10
2010,08,24,15,27,22.00
2010,08,24,15,28,21.90
2010,08,24,15,29,21.90
2010,08,24,15,30,21.90
2010,08,24,15,31,21.80
2010,08,24,15,32,21.70
2010,08,24,15,33,21.70
2010,08,24,15,34,21.70
2010,08,24,15,35,21.60
2010,08,24,15,36,21.60
2010,08,24,15,37,21.60
2010,08,24,15,38,21.70
2010,08,24,15,39,21.70
2010,08,24,15,40,21.70
2010,08,24,15,41,21.60
2010,08,24,15,42,21.70
2010,08,24,15,43,21.50
2010,08,24,15,44,21.40
2010,08,24,15,45,21.40
2010,08,24,15,46,21.40
2010,08,24,15,47,21.50
2010,08,24,15,48,21.40
2010,08,24,15,49,21.40
2010,08,24,15,50,21.40
2010,08,24,15,51,21.40
2010,08,24,15,52,21.40
2010,08,24,15,53,21.30
2010,08,24,15,54,21.20
2010,08,24,15,55,21.10
2010,08,24,15,56,21.10
2010,08,24,15,57,21.10
2010,08,24,15,58,21.10
2010,08,24,15,59,21.20
2010,08,24,16,00,21.20
2010,08,24,16,01,21.30
2010,08,24,16,02,21.50
2010,08,24,16,03,21.60
2010,08,24,16,04,21.60
2010,08,24,16,05,21.60
2010,08,24,16,06,21.60
2010,08,24,16,07,21.60
2010,08,24,16,08,21.50
2010,08,24,16,09,21.40
2010,08,24,16,10,21.30
2010,08,24,16,11,21.40
2010,08,24,16,12,21.50
2010,08,24,16,13,21.60
2010,08,24,16,14,21.50
2010,08,24,16,15,21.30
2010,08,24,16,16,21.30
2010,08,24,16,17,21.30
2010,08,24,16,18,21.30
2010,08,24,16,19,21.40
2010,08,24,16,20,21.50
2010,08,24,16,21,21.60
2010,08,24,16,22,21.60
2010,08,24,16,23,21.60
2010,08,24,16,24,21.60
2010,08,24,16,25,21.70
2010,08,24,16,26,21.70
2010,08,24,16,27,21.80
2010,08,24,16,28,21.80
2010,08,24,16,29,21.80
2010,08,24,16,30,21.80
2010,08,24,16,31,21.90
2010,08,24,16,32,21.80
2010,08,24,16,33,21.90
2010,08,24,16,34,21.90
2010,08,24,16,35,21.90
2010,08,24,16,36,22.00
2010,08,24,16,37,22.00
2010,08,24,16,38,22.10
2010,08,24,16,39,22.20
2010,08,24,16,40,22.20
2010,08,24,16,41,22.20
2010,08,24,16,42,22.00
2010,08,24,16,43,22.00
2010,08,24,16,44,22.10
2010,08,24,16,45,22.10
2010,08,24,16,46,22.10
2010,08,24,16,47,22.10
2010,08,24,16,48,22.20
2010,08,24,16,49,22.30
2010,08,24,16,50,22.40
2010,08,24,16,51,22.30
2010,08,24,16,52,22.30
2010,08,24,16,53,22.30
2010,08,24,16,54,22.30
2010,08,24,16,55,22.30
2010,08,24,16,56,22.30
2010,08,24,16,57,22.30
2010,08,24,16,58,22.40
2010,08,24,16,59,22.40
2010,08,24,17,00,22.30
2010,08,24,17,01,22.30
2010,08,24,17,02,22.30
2010,08,24,17,03,22.30
2010,08,24,17,04,22.20
2010,08,24,17,05,22.10
2010,08,24,17,06,22.10
2010,08,24,17,07,22.10
2010,08,24,17,08,22.20
2010,08,24,17,09,22.10
2010,08,24,17,10,22.10
2010,08,24,17,11,22.10
2010,08,24,17,12,22.10
2010,08,24,17,13,22.10
2010,08,24,17,14,22.10
2010,08,24,17,15,22.10
2010,08,24,17,16,22.10
2010,08,24,17,17,22.10
2010,08,24,17,18,22.10
2010,08,24,17,19,22.10